Weather History for Santa Fe, NM

Change the Weather History Date:

Saturday, September 21, 2013

  Actual Average Record
Temperature  
Mean Temperature 64 °F -  
Max Temperature 75 °F 76 °F 88 °F (2010)
Min Temperature 53 °F 47 °F 39 °F (2006)
Degree Days  
Heating Degree Days 1    
Growing Degree Days 14 (Base 50)    
Moisture  
Dew Point 51 °F    
Average Humidity 66    
Maximum Humidity 90    
Minimum Humidity 36    
Precipitation  
Precipitation 0.00 in - - ()
Sea Level Pressure  
Sea Level Pressure 29.91 in    
Wind  
Wind Speed 7 mph (South)    
Max Wind Speed 12 mph    
Max Gust Speed -    
Visibility 10 miles    
Events      
Averages and records for this station are not official NWS values.
T = Trace of Precipitation, MM = Missing Value Source: NWS Daily Summary

Daily Weather History Graph

Daily Weather History Graph

Search for Another Location

Airport:

Trip Planner

Search our weather history database for the weather conditions in past years. The results will help you decide how hot, cold, wet, or windy it might be!

Date:

Astronomy

Sep. 21, 2013 Rise Set
Actual Time 6:51 AM MDT 7:02 PM MDT
Civil Twilight 6:26 AM MDT 7:27 PM MDT
Nautical Twilight 5:56 AM MDT 7:57 PM MDT
Astronomical Twilight 5:26 AM MDT 8:27 PM MDT
Moon 8:21 PM MDT (9/21) 9:06 AM MDT (9/21)
Length of Visible Light 13h 01m
Length of Day
12h 10m
Waning Gibbous, 94% of the Moon is Illuminated
Sep 21
Waning Gibbous
Sep 26
Last Quarter
Oct 4
New
Oct 11
First Quarter
Oct 18
Full

Hourly Weather History & Observations

Time (MDT) Temp. Dew Point Humidity Pressure Visibility Wind Dir Wind Speed Gust Speed Precip Events Conditions
12:53 AM 57.0 °F 53.1 °F 87% 29.97 in 10.0 mi SE 11.5 mph - N/A   Clear
1:53 AM 57.0 °F 53.1 °F 87% 29.97 in 10.0 mi SE 10.4 mph - N/A   Clear
2:53 AM 55.9 °F 52.0 °F 87% 29.96 in 10.0 mi SE 9.2 mph - N/A   Clear
3:53 AM 55.9 °F 52.0 °F 87% 29.96 in 10.0 mi SE 9.2 mph - N/A   Clear
4:53 AM 55.0 °F 51.1 °F 86% 29.96 in 10.0 mi SE 6.9 mph - N/A   Clear
5:53 AM 54.0 °F 51.1 °F 90% 29.98 in 10.0 mi ESE 3.5 mph - N/A   Clear
6:53 AM 53.1 °F 50.0 °F 89% 29.99 in 10.0 mi Calm Calm - N/A   Clear
7:53 AM 55.0 °F 51.1 °F 86% 30.01 in 10.0 mi Calm Calm - N/A   Clear
8:53 AM 57.9 °F 52.0 °F 81% 30.00 in 10.0 mi SE 4.6 mph - N/A   Clear
9:53 AM 61.0 °F 52.0 °F 72% 29.99 in 10.0 mi Calm Calm - N/A   Clear
10:53 AM 66.0 °F 52.0 °F 60% 29.97 in 10.0 mi Variable 3.5 mph - N/A   Clear
11:53 AM 66.9 °F 52.0 °F 59% 29.96 in 10.0 mi SW 6.9 mph - N/A   Clear
12:53 PM 70.0 °F 52.0 °F 53% 29.94 in 10.0 mi West 10.4 mph - N/A   Clear
1:53 PM 72.0 °F 51.1 °F 48% 29.89 in 10.0 mi SW 9.2 mph - N/A   Clear
2:53 PM 73.9 °F 50.0 °F 43% 29.86 in 10.0 mi West 10.4 mph - N/A   Clear
3:53 PM 75.0 °F 48.9 °F 40% 29.83 in 10.0 mi WSW 6.9 mph - N/A   Clear
4:53 PM 75.9 °F 46.9 °F 36% 29.80 in 10.0 mi SW 9.2 mph - N/A   Clear
5:53 PM 73.9 °F 46.0 °F 37% 29.80 in 10.0 mi WSW 9.2 mph - N/A   Clear
6:53 PM 70.0 °F 48.0 °F 46% 29.81 in 10.0 mi WSW 5.8 mph - N/A   Clear
7:53 PM 64.9 °F 50.0 °F 58% 29.82 in 10.0 mi SW 3.5 mph - N/A   Clear
8:53 PM 64.0 °F 50.0 °F 60% 29.82 in 10.0 mi SW 5.8 mph - N/A   Clear
9:53 PM 62.1 °F 48.9 °F 62% 29.83 in 10.0 mi ESE 4.6 mph - N/A   Clear
10:53 PM 62.1 °F 50.0 °F 65% 29.82 in 10.0 mi ENE 6.9 mph - N/A   Clear
11:53 PM 60.1 °F 50.0 °F 69% 29.83 in 10.0 mi East 4.6 mph - N/A   Clear